Location: Fort Worth, Tx
(32.7431°N, 97.3695°W)
Time: 01:29:37
(UTC-05:00)

ISS - Pass Details

Date: 20 November 2019
Orbit: 411 x 421 km, 51.6° (Epoch: 12 December)

Event Time Altitude Azimuth Distance (km) Brightness Sun altitude
Rises 20:07:45 0° 238° (WSW) 2,339 1.3 -21.3°
Reaches altitude 10° 20:09:54 10° 246° (WSW) 1,482 0.1 -21.7°
Enters shadow 20:12:59 43° 313° (NW) 595 -2.8 -22.4°
